Location: Burzi?i
(45.0869°N, 16.0577°E)
Time: 11:52:46
(UTC+00:00)

DEBRIS - Pass Details

Date: 29 October 2020
Orbit: 307 x 15220 km, 49.4° (Epoch: 27 November)

Event Time Altitude Azimuth Distance (km) Brightness Sun altitude
Rises 17:32:54 0° 243° (WSW) 12,267 10.8 -19.1°
Reaches altitude 10° 17:45:53 10° 246° (WSW) 8,459 9.7 -21.4°
Maximum altitude 18:05:41 84° 336° (NNW) 1,341 4.6 -24.9°
Enters shadow 18:07:34 48° 60° (ENE) 1,344 4.3 -25.2°
